Location: Oregon Trail
(41.1872°N, 102.0741°W)
Time: 21:21:26
(UTC+00:00)

Cosmos 1125 Rocket - Pass Details

Date: 19 November 2019
Orbit: 758 x 779 km, 74.0° (Epoch: 13 December)

Event Time Altitude Azimuth Distance (km) Brightness Sun altitude
Rises 12:49:39 0° 214° (SW) 3,242 6.6 -9.8°
Reaches altitude 10° 12:52:07 10° 220° (SW) 2,317 5.8 -9.3°
Maximum altitude 12:57:10 47° 294° (WNW) 1,024 3.8 -8.4°
Drops below altitude 10° 13:02:14 10° 8° (N) 2,319 5.9 -7.5°
Sets 13:04:43 0° 14° (NNE) 3,246 6.7 -7.1°
